• In Netherlands
  • List of Countries
  • For 7 days
  • Water Temperature
  • Satellite Maps
  • Weather Map
  • Weather Widgets
  • user-avatar
    Login

    Hourly Weather Ravda

    Today, 28 June, Wednesday

    Time Temperature Precipitation Wind Pressure Humidity
    00:00 +21°C° 0 mm 1 mps 758 mmHg 88%
    01:00 +21°C° 0 mm 1 mps 758 mmHg 89%
    02:00 +18°C° 0 mm 0 mps 758 mmHg 90%
    03:00 +20°C° 0 mm 1 mps 758 mmHg 90%
    04:00 +20°C° 0 mm 1 mps 758 mmHg 90%
    05:00 +20°C° 0 mm 1 mps 758 mmHg 91%
    06:00 +23°C° 0 mm 1 mps 758 mmHg 83%
    07:00 +25°C° 0 mm 1 mps 758 mmHg 75%
    08:00 +28°C° 0 mm 1 mps 758 mmHg 67%
    09:00 +29°C° 0 mm 1 mps 758 mmHg 62%
    10:00 +30°C° 0 mm 2 mps 758 mmHg 56%
    11:00 +31°C° 0 mm 2 mps 758 mmHg 51%
    12:00 +32°C° 0 mm 2 mps 758 mmHg 50%
    13:00 +34°C° 0 mm 3 mps 757 mmHg 48%
    14:00 +34°C° 0 mm 3 mps 757 mmHg 47%
    15:00 +33°C° 0 mm 4 mps 757 mmHg 50%
    16:00 +33°C° 0 mm 4 mps 757 mmHg 53%
    17:00 +32°C° 0 mm 4 mps 756 mmHg 57%
    18:00 +29°C° 0 mm 4 mps 756 mmHg 65%
    19:00 +27°C° 0 mm 4 mps 756 mmHg 74%
    20:00 +25°C° 0 mm 3 mps 756 mmHg 83%
    21:00 +24°C° 0 mm 3 mps 757 mmHg 85%
    22:00 +24°C° 0 mm 3 mps 757 mmHg 88%
    23:00 +22°C° 0 mm 3 mps 757 mmHg 90%

    Tomorrow, 29 June, Thursday

    Time Temperature Precipitation Wind Pressure Humidity
    00:00 +22°C° 0 mm 3 mps 757 mmHg 90%
    01:00 +21°C° 0 mm 2 mps 757 mmHg 90%
    02:00 +21°C° 0 mm 2 mps 757 mmHg 91%
    03:00 +21°C° 0 mm 2 mps 757 mmHg 90%
    04:00 +21°C° 0 mm 2 mps 757 mmHg 90%
    05:00 +21°C° 0 mm 2 mps 757 mmHg 89%
    06:00 +24°C° 0 mm 2 mps 757 mmHg 79%
    07:00 +27°C° 0 mm 2 mps 757 mmHg 69%
    08:00 +29°C° 0 mm 2 mps 757 mmHg 59%
    09:00 +31°C° 0 mm 3 mps 757 mmHg 53%
    10:00 +34°C° 0 mm 3 mps 757 mmHg 48%
    11:00 +36°C° 0 mm 4 mps 757 mmHg 42%
    12:00 +37°C° 0 mm 4 mps 757 mmHg 40%
    13:00 +39°C° 0 mm 5 mps 757 mmHg 37%
    14:00 +39°C° 0 mm 5 mps 756 mmHg 35%
    15:00 +39°C° 0 mm 5 mps 756 mmHg 37%
    16:00 +37°C° 0 mm 5 mps 756 mmHg 39%
    17:00 +37°C° 0 mm 5 mps 755 mmHg 41%
    18:00 +34°C° 0 mm 5 mps 756 mmHg 49%
    19:00 +32°C° 0 mm 5 mps 756 mmHg 56%
    20:00 +28°C° 0 mm 4 mps 756 mmHg 64%
    21:00 +28°C° 0 mm 4 mps 756 mmHg 65%
    22:00 +27°C° 0 mm 4 mps 756 mmHg 66%
    23:00 +26°C° 0 mm 4 mps 756 mmHg 67%

    Day after tomorrow, 30 June, Friday

    Time Temperature Precipitation Wind Pressure Humidity
    00:00 +26°C° 0 mm 4 mps 756 mmHg 65%
    01:00 +26°C° 0 mm 4 mps 756 mmHg 63%
    02:00 +26°C° 0 mm 3 mps 756 mmHg 61%
    03:00 +26°C° 0 mm 3 mps 756 mmHg 61%
    04:00 +26°C° 0 mm 3 mps 757 mmHg 60%
    05:00 +25°C° 0 mm 3 mps 757 mmHg 60%
    06:00 +28°C° 0 mm 3 mps 757 mmHg 54%
    07:00 +31°C° 0 mm 2 mps 757 mmHg 47%
    08:00 +34°C° 0 mm 2 mps 758 mmHg 41%
    09:00 +36°C° 0 mm 2 mps 758 mmHg 37%
    10:00 +37°C° 0 mm 2 mps 758 mmHg 33%
    11:00 +39°C° 0 mm 2 mps 758 mmHg 28%
    12:00 +40°C° 0 mm 2 mps 758 mmHg 27%
    13:00 +40°C° 0 mm 2 mps 758 mmHg 25%
    14:00 +41°C° 0 mm 2 mps 758 mmHg 23%
    15:00 +42°C° 0 mm 3 mps 757 mmHg 24%
    16:00 +42°C° 0 mm 3 mps 757 mmHg 24%
    17:00 +40°C° 0 mm 3 mps 757 mmHg 25%
    18:00 +37°C° 0 mm 3 mps 757 mmHg 32%
    19:00 +34°C° 0 mm 3 mps 757 mmHg 40%
    20:00 +29°C° 0 mm 3 mps 757 mmHg 47%
    21:00 +28°C° 0 mm 2 mps 758 mmHg 50%
    22:00 +27°C° 0 mm 2 mps 758 mmHg 53%
    23:00 +26°C° 0 mm 2 mps 758 mmHg 56%

    1 July, Saturday

    Time Temperature Precipitation Wind Pressure Humidity
    00:00 +25°C° 0 mm 1 mps 758 mmHg 59%
    01:00 +25°C° 0 mm 1 mps 758 mmHg 62%
    02:00 +24°C° 0 mm 1 mps 758 mmHg 65%
    03:00 +24°C° 0 mm 1 mps 758 mmHg 64%
    04:00 +24°C° 0 mm 1 mps 758 mmHg 63%
    05:00 +24°C° 0 mm 1 mps 758 mmHg 62%
    06:00 +27°C° 0 mm 1 mps 758 mmHg 53%
    07:00 +31°C° 0 mm 1 mps 758 mmHg 44%
    08:00 +35°C° 0 mm 2 mps 758 mmHg 35%
    09:00 +37°C° 0 mm 2 mps 758 mmHg 32%
    10:00 +38°C° 0 mm 3 mps 757 mmHg 29%
    11:00 +41°C° 0 mm 4 mps 757 mmHg 26%
    12:00 +41°C° 0 mm 4 mps 757 mmHg 25%
    13:00 +41°C° 0 mm 5 mps 756 mmHg 25%
    14:00 +42°C° 0 mm 5 mps 756 mmHg 25%
    15:00 +40°C° 0 mm 5 mps 755 mmHg 28%
    16:00 +39°C° 0 mm 5 mps 755 mmHg 31%
    17:00 +37°C° 0 mm 5 mps 755 mmHg 34%
    18:00 +34°C° 0 mm 5 mps 755 mmHg 42%
    19:00 +30°C° 0 mm 4 mps 755 mmHg 50%
    20:00 +27°C° 0 mm 4 mps 755 mmHg 58%
    21:00 +26°C° 0 mm 4 mps 755 mmHg 61%
    22:00 +25°C° 0 mm 3 mps 755 mmHg 65%
    23:00 +24°C° 0 mm 3 mps 755 mmHg 69%

    2 July, Sunday

    Time Temperature Precipitation Wind Pressure Humidity
    00:00 +24°C° 0 mm 3 mps 754 mmHg 71%
    01:00 +23°C° 0 mm 2 mps 754 mmHg 73%
    02:00 +23°C° 0 mm 2 mps 754 mmHg 76%
    03:00 +22°C° 0 mm 1 mps 754 mmHg 76%
    04:00 +22°C° 0 mm 1 mps 754 mmHg 76%
    05:00 +22°C° 0 mm 1 mps 753 mmHg 77%
    06:00 +25°C° 0 mm 2 mps 754 mmHg 67%
    07:00 +27°C° 0 mm 2 mps 754 mmHg 58%
    08:00 +30°C° 0 mm 3 mps 754 mmHg 48%
    09:00 +31°C° 0 mm 3 mps 754 mmHg 47%
    10:00 +34°C° 0 mm 4 mps 753 mmHg 45%
    11:00 +35°C° 0 mm 4 mps 753 mmHg 43%
    12:00 +35°C° 0 mm 4 mps 753 mmHg 43%
    13:00 +35°C° 0 mm 5 mps 752 mmHg 43%
    14:00 +36°C° 0 mm 5 mps 752 mmHg 42%
    15:00 +35°C° 0 mm 5 mps 751 mmHg 46%
    16:00 +33°C° 0 mm 6 mps 751 mmHg 50%
    17:00 +32°C° 0 mm 6 mps 751 mmHg 54%
    18:00 +29°C° 0 mm 5 mps 751 mmHg 66%
    19:00 +26°C° 0 mm 4 mps 751 mmHg 77%
    20:00 +24°C° 0 mm 3 mps 751 mmHg 89%
    21:00 +23°C° 0 mm 4 mps 752 mmHg 87%
    22:00 +22°C° 0 mm 6 mps 752 mmHg 84%
    23:00 +22°C° 0 mm 7 mps 753 mmHg 82%

    3 July, Monday

    Time Temperature Precipitation Wind Pressure Humidity
    00:00 +22°C° 0 mm 7 mps 753 mmHg 82%
    01:00 +21°C° 0 mm 7 mps 753 mmHg 83%
    02:00 +21°C° 0 mm 7 mps 752 mmHg 84%
    03:00 +21°C° 0 mm 7 mps 752 mmHg 85%
    04:00 +21°C° 0 mm 7 mps 752 mmHg 86%
    05:00 +21°C° 0 mm 6 mps 752 mmHg 87%
    06:00 +22°C° 0 mm 7 mps 753 mmHg 81%
    07:00 +23°C° 0 mm 7 mps 753 mmHg 75%
    08:00 +24°C° 0 mm 7 mps 753 mmHg 69%
    09:00 +26°C° 0.2 mm 7 mps 753 mmHg 66%
    10:00 +26°C° 0.2 mm 7 mps 753 mmHg 63%
    11:00 +27°C° 0.2 mm 8 mps 753 mmHg 60%
    12:00 +27°C° 0.4 mm 8 mps 753 mmHg 61%
    13:00 +27°C° 0.4 mm 8 mps 753 mmHg 63%
    14:00 +27°C° 0.4 mm 8 mps 753 mmHg 65%
    15:00 +24°C° 0.5 mm 9 mps 753 mmHg 70%
    16:00 +23°C° 0.5 mm 9 mps 754 mmHg 75%
    17:00 +22°C° 0.5 mm 9 mps 754 mmHg 80%
    18:00 +21°C° 0.8 mm 9 mps 754 mmHg 82%
    19:00 +21°C° 0.8 mm 9 mps 754 mmHg 84%
    20:00 +19°C° 0.8 mm 10 mps 755 mmHg 85%
    21:00 +19°C° 0.9 mm 9 mps 755 mmHg 87%
    22:00 +18°C° 0.9 mm 9 mps 755 mmHg 88%
    23:00 +18°C° 0.9 mm 9 mps 755 mmHg 89%
    Show more